Weather History for Ankeny, IA

Change the Weather History Date:

Wednesday, August 13, 2014

  Actual Average (KDSM) Record (KDSM)
Temperature  
Mean Temperature 66 °F 75 °F  
Max Temperature 80 °F 84 °F 99 °F (1965)
Min Temperature 53 °F 66 °F 48 °F (1964)
Degree Days  
Heating Degree Days 0 0  
Month to date heating degree days 0  
Since 1 June heating degree days 18  
Since 1 July heating degree days 1  
Cooling Degree Days 2 10  
Month to date cooling degree days 137  
Year to date cooling degree days 783  
Since 1 June cooling degree days 707  
Growing Degree Days 16 (Base 50)    
Moisture  
Dew Point 57 °F    
Average Humidity 71    
Maximum Humidity 100    
Minimum Humidity 44    
Precipitation  
Precipitation 0.00 in 0.14 in 3.24 in (1940)
Month to date precipitation 1.75  
Year to date precipitation 24.34  
Snow  
Snow 0.00 in 0.00 in - ()
Month to date snowfall 0.0  
Since 1 June snowfall 0.0  
Since 1 July snowfall 0.0  
Snow Depth -    
Sea Level Pressure  
Sea Level Pressure 30.11 in    
Wind  
Wind Speed 2 mph (WNW)    
Max Wind Speed 10 mph    
Max Gust Speed -    
Visibility 10 miles    
Events      
T = Trace of Precipitation, MM = Missing Value Source: NWS Daily Summary

Daily Weather History Graph

Daily Weather History Graph

Search for Another Location

Airport:

Trip Planner

Search our weather history database for the weather conditions in past years. The results will help you decide how hot, cold, wet, or windy it might be!

Date:

Astronomy

Aug. 13, 2014 Rise Set
Actual Time 6:20 AM CDT 8:16 PM CDT
Civil Twilight 5:50 AM CDT 8:46 PM CDT
Nautical Twilight 5:13 AM CDT 9:23 PM CDT
Astronomical Twilight 4:33 AM CDT 10:03 PM CDT
Moon 9:58 PM CDT (8/13) 9:53 AM CDT (8/13)
Length of Visible Light 14h 56m
Length of Day
13h 56m
Waning Gibbous, 87% of the Moon is Illuminated
Aug 13
Waning Gibbous
Aug 17
Last Quarter
Aug 25
New
Sep 2
First Quarter
Sep 8
Full

Hourly Weather History & Observations

Time (CDT) Temp. Heat Index Dew Point Humidity Pressure Visibility Wind Dir Wind Speed Gust Speed Precip Events Conditions
12:15 AM 59.0 °F - 55.4 °F 88% 30.08 in 10.0 mi North - - N/A   Clear
12:35 AM 55.4 °F - 53.6 °F 94% 30.09 in 10.0 mi Calm Calm - N/A   Clear
12:55 AM 57.2 °F - 55.4 °F 94% 30.09 in 10.0 mi Calm Calm - N/A   Clear
1:15 AM 55.4 °F - 53.6 °F 94% 30.09 in 10.0 mi Calm Calm - N/A   Clear
1:35 AM 57.2 °F - 55.4 °F 94% 30.09 in 10.0 mi Calm Calm - N/A   Clear
1:55 AM 57.2 °F - 55.4 °F 94% 30.08 in 10.0 mi Calm Calm - N/A   Clear
2:15 AM 53.6 °F - 53.6 °F 100% 30.09 in 10.0 mi Calm Calm - N/A   Clear
2:35 AM 57.2 °F - 55.4 °F 94% 30.09 in 10.0 mi Calm Calm - N/A   Clear
2:55 AM 57.2 °F - 55.4 °F 94% 30.10 in 10.0 mi Calm Calm - N/A   Clear
3:15 AM 55.4 °F - 55.4 °F 100% 30.10 in 10.0 mi Calm Calm - N/A   Clear
3:35 AM 57.2 °F - 57.2 °F 100% 30.10 in 10.0 mi Calm Calm - N/A   Clear
3:55 AM 55.4 °F - 55.4 °F 100% 30.10 in 10.0 mi Calm Calm - N/A   Clear
4:15 AM 57.2 °F - 55.4 °F 94% 30.10 in 10.0 mi Calm Calm - N/A   Clear
4:35 AM 55.4 °F - 53.6 °F 94% 30.11 in 10.0 mi Calm Calm - N/A   Clear
4:55 AM 57.2 °F - 55.4 °F 94% 30.11 in 10.0 mi Calm Calm - N/A   Clear
5:15 AM 55.4 °F - 53.6 °F 94% 30.11 in 10.0 mi Calm Calm - N/A   Clear
5:35 AM 57.2 °F - 55.4 °F 94% 30.11 in 10.0 mi West 4.6 mph - N/A   Clear
6:15 AM 55.4 °F - 53.6 °F 94% 30.12 in 10.0 mi Calm Calm - N/A   Clear
6:35 AM 53.6 °F - 53.6 °F 100% 30.13 in 10.0 mi Calm Calm - N/A   Clear
6:55 AM 53.6 °F - 53.6 °F 100% 30.13 in 10.0 mi Calm Calm - N/A   Clear
7:35 AM 60.8 °F - 57.2 °F 88% 30.14 in - Calm Calm - N/A   Unknown
7:55 AM 62.6 °F - 59.0 °F 88% 30.14 in 10.0 mi West 3.5 mph - N/A   Clear
8:15 AM 64.4 °F - 59.0 °F 83% 30.14 in 10.0 mi Calm Calm - N/A   Clear
8:35 AM 66.2 °F - 57.2 °F 73% 30.15 in 10.0 mi NW 4.6 mph - N/A   Clear
8:55 AM 68.0 °F - 59.0 °F 73% 30.15 in 10.0 mi WNW 3.5 mph - N/A   Clear
9:35 AM 71.6 °F - 57.2 °F 60% 30.14 in 10.0 mi NNW 4.6 mph - N/A   Clear
9:55 AM 71.6 °F - 59.0 °F 64% 30.14 in 10.0 mi West 5.8 mph - N/A   Clear
10:15 AM 73.4 °F - 57.2 °F 57% 30.14 in 10.0 mi WNW 5.8 mph - N/A   Clear
10:35 AM 73.4 °F - 57.2 °F 57% 30.14 in 10.0 mi NW 8.1 mph - N/A   Clear
10:55 AM 75.2 °F - 57.2 °F 53% 30.14 in 10.0 mi WNW 8.1 mph - N/A   Clear
11:15 AM 75.2 °F - 57.2 °F 53% 30.14 in 10.0 mi WNW 6.9 mph - N/A   Clear
11:35 AM 75.2 °F - 55.4 °F 50% 30.14 in 10.0 mi Variable 6.9 mph - N/A   Clear
11:55 AM 77.0 °F - 57.2 °F 50% 30.14 in 10.0 mi West 10.4 mph - N/A   Clear
12:10 PM 77.0 °F - 57.2 °F 50% 30.13 in 10.0 mi Variable 4.6 mph - N/A   Clear
12:35 PM 77.0 °F - 59.0 °F 54% 30.13 in 10.0 mi Variable 6.9 mph - N/A   Clear
12:55 PM 78.8 °F - 59.0 °F 51% 30.13 in 10.0 mi West 5.8 mph - N/A   Clear
1:15 PM 77.0 °F - 57.2 °F 50% 30.13 in 10.0 mi NW 6.9 mph - N/A   Clear
1:35 PM 77.0 °F - 57.2 °F 50% 30.13 in 10.0 mi WNW 6.9 mph - N/A   Clear
1:55 PM 78.8 °F - 57.2 °F 47% 30.12 in 10.0 mi West 8.1 mph - N/A   Clear
2:15 PM 78.8 °F - 57.2 °F 47% 30.12 in 10.0 mi Variable 6.9 mph - N/A   Clear
2:35 PM 78.8 °F - 57.2 °F 47% 30.11 in 10.0 mi NNW 5.8 mph - N/A   Clear
2:55 PM 78.8 °F - 57.2 °F 47% 30.11 in 10.0 mi Variable 6.9 mph - N/A   Clear
3:15 PM 78.8 °F - 55.4 °F 44% 30.10 in 10.0 mi NW 5.8 mph - N/A   Clear
3:35 PM 78.8 °F - 57.2 °F 47% 30.09 in 10.0 mi Variable 4.6 mph - N/A   Clear
3:55 PM 80.6 °F 80.8 °F 57.2 °F 45% 30.09 in 10.0 mi NW 8.1 mph - N/A   Clear
4:15 PM 80.6 °F 80.8 °F 57.2 °F 45% 30.09 in 10.0 mi NW 3.5 mph - N/A   Clear
4:35 PM 80.6 °F 81.1 °F 59.0 °F 48% 30.08 in 10.0 mi Calm Calm - N/A   Clear
5:15 PM 80.6 °F 80.8 °F 57.2 °F 45% 30.08 in 10.0 mi Calm Calm - N/A   Clear
5:35 PM 80.6 °F 80.8 °F 57.2 °F 45% 30.07 in 10.0 mi Calm Calm - N/A   Clear
5:55 PM 78.8 °F - 57.2 °F 47% 30.07 in 10.0 mi Calm Calm - N/A   Clear
6:15 PM 78.8 °F - 57.2 °F 47% 30.07 in 10.0 mi West 4.6 mph - N/A   Clear
6:35 PM 78.8 °F - 59.0 °F 51% 30.07 in 10.0 mi NNW 3.5 mph - N/A   Clear
6:55 PM 78.8 °F - 60.8 °F 54% 30.07 in 10.0 mi WNW 5.8 mph - N/A   Clear
7:55 PM 75.2 °F - 59.0 °F 57% 30.07 in 10.0 mi NW 3.5 mph - N/A   Clear
11:15 PM 62.6 °F - 60.8 °F 94% 30.09 in 10.0 mi Calm Calm - N/A   Clear
11:35 PM 62.6 °F - 60.8 °F 94% 30.09 in 10.0 mi Calm Calm - N/A   Clear
11:55 PM 60.8 °F - 60.8 °F 100% 30.09 in 10.0 mi Calm Calm - N/A   Clear